SCP
0 0 0 0 0 0 0 0 0 0 0 0 0 0 0 0 0 0 0 0 0 0 0 0 0 0 0 0 0 0 0 0 0 0 0 0 -0 -0
0 0 0 0 0 0 0 0 0 0 0 0 0 0 0 0 0 0 0 0 0 0 0 0 0 0 0 0 0 0 0 0 0 0 0 -0 -0 -0
0 0 0 0 0 0 0 0 0 0 0 0 0 0 0 0 0 0 0 0 0 0 0 0 0 0 0 0 0 0 0 0 0 0 -0 -0 -0 -0
0 0 0 0 0 0 0 0 0 0 0 0 0 0 0 0 0 0 0 0 0 0 0 0 0 0 0 0 0 0 0 0 0 0 -0 -0 -0 -0
0 0 0 0 0 0 0 0 0 0 0 0 0 0 0 0 0 0 0 0 0 0 0 0 0 0 0 0 0 0 0 0 0 -0 -0 -0 -0 -0
0 0 0 0 0 0 0 0 0 0 0 0 0 0 0 0 0 0 0 0 0 0 0 0 0 0 0 0 0 0 0 0 0 -0 -0 -0 -0 -0
0 0 0 0 0 0 0 0 0 0 0 0 0 0 0 0 0 0 0 0 0 0 0 0 0 0 0 0 0 0 0 0 0 -0 -0 -0 0 0
0 0 0 0 0 0 0 0 0 0 0 0 0 0 0 0 0 0 0 0 0 0 0 0 0 0 0 0 0 0 0 0 0 0 0 0 0 0
0 0 0 0 0 0 0 0 0 0 0 0 0 0 0 0 0 0 0 0 0 0 0 0 0 0 0 0 0 0 0 0 0 0 0 0 0 0
0 0 0 0 0 0 0 0 0 0 0 0 0 0 0 0 0 0 0 0 0 0 0 0 0 0 0 0 0 0 0 0 0 0 0 0 0 0
0 0 0 0 0 0 0 0 0 0 0 0 0 0 0 0 0 0 0 0 0 0 0 0 0 0 0 0 0 0 0 0 0 0 0 0 0 0
0 0 0 0 0 0 0 0 0 0 0 0 0 0 0 0 0 0 0 0 0 0 0 0 0 0 0 0 0 0 0 0 0 0 0 0 0 0
0 0 0 0 0 0 0 0 0 0 0 0 0 0 0 0 0 0 0 0 0 0 0 0 0 0 0 0 0 0 0 0 0 0 0 0 0 0
0 0 0 0 0 0 0 0 0 -0 0 0 0 0 0 0 0 0 0 0 0 0 0 0 0 0 0 0 0 0 0 0 0 0 0 0 0 0
0 0 0 0 0 0 0 0 0 0 0 0 0 0 0 0 0 0 0 0 0 0 0 0 0 0 0 0 0 0 0 0 0 0 0 0 0 0
0 0 0 0 0 0 0 0 0 0 0 0 0 0 0 0 0 0 0 0 0 0 0 0 0 0 0 0 0 0 0 0 0 0 0 0 0 0
0 0 0 0 0 0 0 0 0 0 0 0 0 0 0 0 0 0 0 0 0 0 0 0 0 0 0 0 0 0 0 0 0 0 0 0 0 0
0 0 0 0 0 0 0 0 0 0 0 0 0 0 0 0 0 0 0 0 0 0 0 0 0 0 0 0 0 0 0 0 0 0 0 0 0 0
0 0 0 0 0 0 0 0 0 0 0 0 0 0 0 0 0 0 0 0 0 0 0 0 0 0 0 0 0 0 0 0 0 0 0 0 0 0
0 0 0 0 0 0 0 0 0 0 0 0 0 0 0 0 0 0 0 0 0 0 0 0 0 0 0 0 0 0 0 0 0 0 0 0 0 0
0 0 0 0 0 0 0 0 0 0 0 0 0 0 0 0 0 0 0 0 0 0 0 0 0 0 0 0 0 0 0 0 0 0 0 0 0 0
0 0 0 0 0 0 0 0 0 0 0 0 0 0 0 0 0 0 0 0 0 0 0 0 0 0 0 0 0 0 0 0 0 0 0 0 0 0
0 0 0 0 0 0 0 0 0 0 0 0 0 0 0 0 0 0 0 0 0 0 0 0 0 0 0 0 0 0 0 0 0 0 0 0 0 0
Wind_Speed
4 5 4 4 5 4 2 1 1 1 2 1 2 4 2 2 2 1 0 1 2 4 4 4 6 4 4 9 13 16 24 27 26 25 25 26 22 20
3 4 4 3 3 4 4 3 1 2 2 1 2 3 3 2 1 1 1 1 1 2 2 2 5 6 5 9 16 20 23 22 22 22 21 18 14 16
5 5 6 6 4 4 4 3 2 2 3 3 3 3 3 4 2 2 3 3 1 0 3 4 4 5 7 10 15 19 21 20 19 18 17 13 12 16
6 6 6 5 4 4 3 3 3 2 2 3 3 2 2 3 3 2 3 3 2 2 3 4 4 5 7 11 12 13 14 17 16 16 17 13 15 16
6 6 5 5 4 4 5 4 4 3 2 2 2 1 2 2 3 2 3 3 3 3 4 5 6 6 7 10 12 12 12 14 14 15 14 13 14 14
5 4 4 3 3 4 5 5 6 6 4 3 2 2 2 2 2 2 2 2 2 3 4 5 6 6 8 9 8 8 9 10 11 12 12 12 13 13
5 5 5 6 4 3 3 5 5 5 4 4 3 3 4 4 3 2 1 2 2 2 3 4 4 5 5 7 8 8 8 9 10 10 10 10 11 11
6 6 6 8 7 7 6 5 5 5 5 4 4 4 5 5 5 3 0 1 1 1 1 2 2 3 4 4 6 8 9 10 11 10 10 11 11 12
5 6 7 7 7 6 7 9 9 8 6 4 4 4 5 5 6 5 3 2 1 2 1 1 1 0 1 4 4 5 7 11 13 14 13 14 14 14
5 5 6 6 7 6 6 9 8 8 8 5 4 5 4 5 4 2 2 3 4 3 3 1 2 2 2 4 6 5 2 8 12 13 13 14 14 14
6 6 7 7 10 11 9 9 9 8 7 6 5 5 6 6 7 4 3 3 3 1 1 0 1 2 2 2 3 5 2 2 6 9 11 12 11 9
5 6 8 8 9 11 8 7 8 8 8 9 9 10 10 10 10 7 4 2 1 2 1 1 0 2 2 2 2 1 1 3 4 4 5 8 9 7
4 4 5 7 9 9 8 6 4 6 5 5 5 6 7 8 8 7 5 4 3 1 1 2 1 1 1 1 1 2 2 1 1 1 2 3 6 7
4 3 3 5 7 7 7 7 7 5 5 6 6 6 7 7 8 7 5 4 3 3 4 2 1 1 1 0 2 1 2 1 0 1 0 2 2 4
3 3 4 6 6 5 8 8 7 6 6 7 7 6 6 6 7 7 6 3 1 5 7 6 4 2 1 1 1 1 1 2 2 0 1 1 1 2
4 5 4 4 6 6 5 6 6 5 5 6 5 6 7 8 9 8 6 7 6 6 8 9 7 5 3 1 1 2 3 3 1 2 3 2 3 3
2 2 3 4 5 5 4 5 5 6 6 5 5 6 6 7 8 9 7 7 8 9 9 10 10 5 3 6 2 2 3 2 2 3 3 2 2 1
2 2 3 3 3 3 4 4 6 6 6 6 6 5 5 6 6 6 7 7 8 9 8 9 10 8 3 1 5 5 4 3 2 4 4 2 1 2
2 2 2 2 2 1 2 3 3 4 4 5 5 5 5 5 6 6 6 6 7 7 7 6 7 7 8 8 8 8 6 5 2 2 4 3 3 4
2 2 2 2 2 1 1 1 2 3 4 5 5 6 6 5 6 6 7 7 7 7 7 7 7 5 3 3 4 6 5 3 4 1 1 0 1 1
3 4 3 3 3 2 1 0 1 2 3 4 4 5 5 5 6 6 6 6 7 7 8 8 7 7 5 2 2 2 1 0 3 2 1 2 1 2
4 5 4 4 3 2 2 2 1 1 0 2 3 3 4 4 5 6 6 6 7 7 7 7 7 6 4 4 4 4 3 1 1 3 3 4 4 6
5 5 5 5 4 4 4 4 3 2 1 0 1 2 3 4 4 4 5 5 6 6 7 7 7 6 5 5 6 5 5 2 1 1 1 2 10 11
Wind_Direction
38 51 47 17 7 350 328 279 250 304 281 0 328 348 335 276 238 167 194 259 308 321 325 332 325 308 198 171 174 167 165 170 172 175 179 180 189 189
29 32 49 29 5 350 341 336 253 176 257 292 268 291 297 322 283 241 262 234 292 346 62 41 26 50 99 135 146 151 158 165 169 176 182 181 193 181
27 47 47 41 25 13 351 324 299 227 244 256 238 255 267 276 228 202 220 213 245 68 101 92 83 79 98 119 140 154 163 167 169 167 172 191 189 179
38 46 41 49 49 42 11 353 324 310 257 279 276 266 267 265 246 215 221 220 208 165 133 118 103 113 121 107 113 130 141 144 148 162 183 200 185 188
33 33 24 36 41 30 19 1 336 330 310 285 307 320 290 299 281 244 222 220 217 188 166 148 132 123 125 133 137 143 145 146 160 177 193 183 181 187
23 14 16 19 21 19 13 5 357 354 357 339 336 304 296 314 296 271 234 211 209 185 155 154 151 148 149 148 149 157 164 173 180 187 186 181 179 184
20 12 26 34 37 17 1 7 5 1 4 11 0 352 348 331 305 273 228 175 209 204 173 162 151 154 171 175 173 179 183 184 186 184 181 181 184 191
29 4 17 27 23 22 21 30 34 24 15 17 12 2 344 335 326 327 258 166 206 286 184 160 164 183 177 188 188 191 198 197 190 186 188 192 198 205
33 19 29 26 23 14 14 31 42 44 32 9 10 1 334 335 330 355 8 29 46 2 333 113 73 18 98 114 141 184 205 210 205 200 199 200 203 207
40 31 39 39 25 14 24 33 28 26 16 12 359 345 334 327 329 339 3 39 43 34 343 54 45 59 65 115 111 109 182 211 209 208 209 212 209 212
42 34 33 33 16 23 35 29 25 12 2 25 23 4 350 360 1 1 29 58 84 50 318 35 48 24 31 16 81 89 72 183 203 205 207 211 213 218
47 32 35 34 25 28 37 30 26 353 350 21 16 10 5 13 24 17 347 6 105 119 136 191 17 59 26 15 338 283 202 156 154 168 193 205 202 204
71 42 18 36 48 34 33 32 359 322 346 32 26 16 11 15 10 2 354 332 332 36 164 155 87 74 58 349 293 282 285 320 20 72 142 184 196 205
63 38 14 25 63 48 31 20 14 10 11 22 25 20 17 12 351 339 343 345 347 9 338 288 233 188 145 236 277 283 286 282 267 316 266 156 192 227
49 33 13 26 37 38 21 22 37 38 27 21 16 7 352 344 338 340 355 5 341 38 30 350 301 278 237 248 274 282 294 241 213 289 357 243 224 187
16 15 21 25 43 35 21 30 42 47 46 33 14 4 0 6 13 10 4 3 9 21 34 12 4 350 327 312 264 295 256 255 189 129 83 50 58 86
12 10 26 43 53 52 55 50 49 50 49 40 29 27 25 25 25 17 17 24 32 7 13 17 0 340 293 312 336 354 309 258 168 137 126 103 88 98
70 68 75 74 78 70 65 55 43 39 34 29 29 24 29 30 26 31 34 35 28 19 19 19 8 357 12 66 16 11 5 28 126 172 155 134 169 195
112 125 125 128 114 82 58 48 35 17 12 17 19 14 7 9 10 12 23 31 34 30 24 29 27 11 7 5 18 40 34 4 341 214 181 173 191 209
158 184 186 177 184 185 104 43 28 21 30 27 21 15 15 16 18 13 11 11 10 12 17 26 27 7 335 338 349 1 34 17 331 354 110 118 296 161
193 205 203 191 199 203 182 121 40 45 41 27 21 19 20 20 17 8 359 357 356 353 349 351 347 327 299 290 282 274 303 101 281 238 95 32 292 223
205 208 208 203 207 213 207 199 207 232 10 26 25 18 18 22 20 15 14 8 5 357 343 338 342 347 350 340 329 325 327 357 343 213 148 141 250 247
216 219 218 214 207 209 205 207 217 231 226 250 348 354 359 7 11 6 3 2 358 356 356 350 351 346 343 341 333 317 305 310 315 52 44 280 276 261